TimeAKDT,TemperatureF,Dew PointF,Humidity,Sea Level PressureIn,VisibilityMPH,Wind Direction,Wind SpeedMPH,Gust SpeedMPH,PrecipitationIn,Events,Conditions,WindDirDegrees,DateUTC
12:53 AM,34.0,19.0,54,29.93,10.0,North,8.1,-,N/A,,Mostly Cloudy,10,2013-05-03 08:53:00
1:53 AM,33.1,19.9,59,29.94,6.0,NE,5.8,-,0.00,Snow,Light Snow,40,2013-05-03 09:53:00
2:04 AM,33.1,24.1,70,29.92,3.0,ENE,6.9,-,0.00,Snow,Light Snow,60,2013-05-03 10:04:00
2:16 AM,32.0,25.0,75,29.92,2.0,ENE,3.5,-,0.01,Snow,Light Snow,60,2013-05-03 10:16:00
2:53 AM,30.9,27.0,85,29.94,2.0,ENE,6.9,-,0.01,Snow,Light Snow,60,2013-05-03 10:53:00
3:53 AM,30.0,25.0,82,29.93,2.5,North,8.1,-,0.02,Snow,Light Snow,10,2013-05-03 11:53:00
4:53 AM,30.0,23.0,75,29.92,3.0,North,10.4,-,0.00,Snow,Light Snow,360,2013-05-03 12:53:00
5:53 AM,30.0,21.9,72,29.90,4.0,North,11.5,-,0.00,Snow,Light Snow,360,2013-05-03 13:53:00
6:53 AM,30.0,23.0,75,29.90,2.5,North,11.5,-,0.00,Snow,Light Snow,360,2013-05-03 14:53:00
7:53 AM,30.0,24.1,79,29.89,2.0,North,11.5,-,0.00,Snow,Light Snow,10,2013-05-03 15:53:00
8:53 AM,30.9,26.1,82,29.88,2.5,North,8.1,-,0.00,Snow,Light Snow,360,2013-05-03 16:53:00
9:22 AM,32.0,26.1,79,29.84,3.0,North,11.5,-,0.00,Snow,Light Snow,10,2013-05-03 17:22:00
9:53 AM,33.1,26.1,75,29.86,3.0,North,9.2,-,0.00,Snow,Light Snow,10,2013-05-03 17:53:00
10:20 AM,33.1,27.0,78,29.84,2.5,North,6.9,-,0.00,Snow,Light Snow,360,2013-05-03 18:20:00
10:53 AM,33.1,28.0,82,29.86,2.0,North,9.2,-,0.01,Snow,Light Snow,360,2013-05-03 18:53:00
11:25 AM,34.0,28.0,79,29.83,3.0,North,5.8,-,0.00,Snow,Light Snow,360,2013-05-03 19:25:00
11:53 AM,35.1,28.9,78,29.86,7.0,NNE,9.2,-,0.00,Snow,Light Snow,20,2013-05-03 19:53:00
12:53 PM,37.9,28.0,68,29.86,10.0,North,6.9,-,0.00,,Overcast,10,2013-05-03 20:53:00
1:53 PM,37.9,28.0,68,29.86,10.0,NW,11.5,-,N/A,,Overcast,320,2013-05-03 21:53:00
2:53 PM,37.0,27.0,67,29.87,10.0,NNW,10.4,-,N/A,,Overcast,340,2013-05-03 22:53:00
3:53 PM,37.0,27.0,67,29.87,10.0,NW,5.8,-,N/A,,Overcast,320,2013-05-03 23:53:00
4:53 PM,33.1,27.0,78,29.88,10.0,SSW,9.2,-,N/A,,Mostly Cloudy,200,2013-05-04 00:53:00
5:53 PM,33.1,27.0,78,29.88,10.0,SSW,8.1,-,N/A,,Mostly Cloudy,200,2013-05-04 01:53:00
6:53 PM,30.9,26.1,82,29.88,10.0,SSW,8.1,-,0.00,Snow,Light Snow,200,2013-05-04 02:53:00
7:53 PM,30.0,25.0,82,29.91,6.0,SSW,9.2,-,0.00,Snow,Light Snow,200,2013-05-04 03:53:00
8:05 PM,30.0,26.1,85,29.88,5.0,SSW,8.1,-,0.00,Snow,Light Snow,200,2013-05-04 04:05:00
8:53 PM,28.9,25.0,85,29.92,3.0,SSW,5.8,-,0.00,Snow,Light Snow,210,2013-05-04 04:53:00
9:30 PM,28.0,24.1,85,29.90,2.5,SSW,6.9,-,0.00,Snow,Light Snow,210,2013-05-04 05:30:00
9:53 PM,28.0,24.1,85,29.94,2.0,SSW,5.8,-,0.00,Snow,Light Snow,210,2013-05-04 05:53:00
10:13 PM,28.0,24.1,85,29.92,1.5,SSW,8.1,-,0.00,Snow,Light Snow,200,2013-05-04 06:13:00
10:53 PM,28.0,25.0,88,29.95,2.0,Variable,3.5,-,0.00,Snow,Light Snow,0,2013-05-04 06:53:00
11:13 PM,28.0,25.0,88,29.93,3.0,Variable,4.6,-,0.01,Snow,Light Snow,0,2013-05-04 07:13:00
11:53 PM,27.0,23.0,85,29.96,6.0,WSW,6.9,-,0.01,Snow,Light Snow,240,2013-05-04 07:53:00